Theta_e
312 321 325 324 322 329 332 336 337 338 338 340 338 340 354 353 360 363 345 352 356 355 350 343 343 346 347 346 339 335 334 332 333 333 336 335 331 332 335 335 337 338 341 341 332 336 329 328 333
319 323 319 321 324 329 333 334 336 338 337 337 338 342 356 361 352 351 346 353 357 355 349 346 343 343 345 348 343 337 336 332 333 334 337 334 336 335 336 337 339 339 337 333 328 329 329 333 335
317 322 320 322 325 327 331 334 336 337 336 336 337 343 359 354 352 350 347 354 357 356 353 348 343 342 343 347 346 339 338 333 334 334 336 333 337 338 339 338 338 336 338 337 332 329 330 334 336
321 322 319 321 326 328 328 331 333 336 336 335 336 339 353 355 352 347 349 356 355 355 355 348 343 342 343 345 347 342 340 335 334 334 336 332 335 338 343 339 336 336 338 338 333 332 332 334 336
321 320 321 324 326 327 329 330 331 336 335 334 334 337 358 353 350 345 349 354 352 351 358 346 342 341 343 345 347 344 342 337 335 335 336 331 332 340 344 341 335 333 337 336 333 331 333 337 340
320 320 322 325 326 327 329 330 330 335 336 335 333 334 357 353 349 346 348 350 350 351 356 344 340 340 342 345 347 345 343 338 337 337 337 330 328 337 341 342 335 328 335 334 332 331 333 337 343
320 322 323 325 326 328 329 330 330 332 335 335 334 333 356 353 349 347 348 349 349 355 354 349 344 342 341 344 346 345 344 340 338 340 338 331 327 330 335 339 332 329 328 334 334 333 337 339 342
321 322 325 326 327 327 329 330 331 330 333 334 333 332 354 354 350 348 348 348 348 353 351 350 351 346 344 346 345 345 344 342 340 343 340 332 325 328 335 333 329 329 327 329 332 334 333 333 335
321 321 324 325 326 327 329 329 328 328 328 331 332 335 359 355 351 349 348 348 347 350 348 346 347 350 350 353 349 346 345 344 343 345 342 332 330 332 336 332 332 327 328 328 328 330 332 334 334
322 322 322 324 326 327 328 328 330 327 326 327 331 344 354 357 354 351 349 349 348 349 346 345 345 345 344 347 350 348 349 347 346 347 344 335 338 339 343 339 339 340 331 329 328 328 328 329 329
321 321 321 323 324 326 327 328 329 328 325 325 326 334 345 352 357 353 350 348 348 348 347 344 344 343 342 342 345 351 351 351 349 348 345 335 338 341 339 342 340 338 339 333 331 325 325 329 335
320 319 320 321 322 323 324 325 326 326 326 327 327 329 339 349 350 355 352 350 349 347 348 346 346 342 342 343 344 343 344 343 344 343 343 337 339 338 340 342 342 342 340 338 337 338 337 334 333
323 321 320 320 321 321 321 321 323 324 325 325 325 327 337 342 349 348 353 351 350 349 349 346 348 343 344 347 346 343 344 342 342 341 343 341 337 339 341 340 342 345 341 340 340 339 340 337 336
324 325 325 323 321 321 320 320 321 322 324 324 324 324 325 325 329 338 348 351 352 351 349 348 349 345 344 351 347 344 346 344 344 343 343 341 337 338 340 340 341 338 340 341 342 342 341 342 341
323 324 325 327 326 323 322 320 320 321 322 323 323 324 323 325 324 328 330 350 356 353 351 349 350 348 346 351 349 346 347 348 347 347 345 344 341 338 339 340 339 339 337 337 339 338 340 340 340
323 324 326 326 326 326 324 322 321 321 321 322 321 323 323 323 323 323 327 335 353 356 353 353 351 354 350 352 355 350 351 347 349 349 350 348 347 345 350 343 345 343 343 343 342 342 343 343 343
324 326 325 325 325 326 324 324 323 322 321 322 322 322 322 323 324 323 326 326 353 356 355 354 352 355 354 354 354 354 351 352 350 351 352 352 351 350 349 351 349 350 351 350 350 349 349 347 347
324 324 324 325 326 325 326 327 325 323 322 323 323 321 322 322 323 323 324 328 351 360 357 357 355 357 356 356 355 353 354 353 353 352 353 353 353 353 352 350 353 350 349 349 349 349 348 347 347
323 323 323 324 325 326 327 326 327 325 323 322 323 324 322 323 324 324 323 328 338 358 362 359 359 359 360 359 358 358 355 356 354 355 353 353 354 353 353 354 352 350 351 348 348 347 350 349 347
320 321 322 323 323 325 327 327 328 327 325 324 324 324 323 324 324 324 324 329 334 350 357 362 361 359 361 361 361 359 359 358 357 356 355 355 356 355 353 353 351 352 351 349 348 350 349 348 347
317 319 321 321 321 323 326 329 328 326 327 326 325 325 324 322 324 325 327 328 333 341 350 356 362 361 360 361 360 357 355 357 358 359 355 354 356 355 353 353 351 351 348 349 349 347 346 347 347
320 318 318 319 322 324 324 329 330 327 326 327 327 324 324 322 324 326 327 330 331 335 339 342 353 361 362 360 357 357 355 357 358 359 359 357 356 355 353 350 350 350 347 350 347 348 349 349 350
323 320 319 318 320 322 323 326 328 327 326 326 327 327 327 324 323 324 327 329 330 334 333 328 333 349 361 358 356 356 355 354 354 355 355 355 354 352 353 351 349 349 349 348 347 348 347 348 346
321 323 325 319 320 322 323 325 327 327 327 327 326 327 327 325 325 324 326 326 327 330 332 332 334 345 355 356 353 355 352 349 351 352 354 355 352 351 350 349 350 349 347 347 347 346 346 344 343
319 324 332 325 323 324 321 323 324 326 325 325 326 327 326 326 325 325 325 325 328 327 332 336 338 343 353 356 355 353 350 353 354 354 353 352 351 349 347 347 346 346 345 345 345 344 343 343 342
321 322 330 329 326 323 322 323 323 323 323 325 324 326 327 327 326 326 326 326 325 326 329 333 341 344 351 355 355 351 347 352 352 353 352 350 349 347 345 345 345 345 344 344 343 342 340 341 341
322 324 324 329 321 321 321 323 323 323 323 324 324 325 328 328 327 327 326 327 326 326 331 336 341 348 356 356 353 353 352 350 352 349 347 346 345 345 345 343 342 341 338 338 337 336 336 336 336
321 323 328 327 327 331 327 328 324 324 325 324 325 325 328 329 328 328 326 329 327 325 336 343 352 352 352 351 352 351 351 348 344 342 341 340 338 338 337 337 336 336 336 336 335 336 335 334 332
322 326 326 327 325 325 329 330 334 334 327 326 326 326 328 330 342 343 330 330 328 331 350 350 349 348 347 347 343 343 342 339 338 337 338 337 336 336 334 333 332 330 329 328 327 326 327 326 326
324 324 327 330 329 325 329 332 332 335 332 328 329 333 337 347 349 348 342 345 347 348 348 346 344 343 341 339 339 339 338 336 333 330 328 327 325 325 324 324 323 322 322 321 321 320 320 320 321
Wind_Speed
12 15 15 16 7 8 16 20 23 8 2 6 4 6 26 7 2 7 22 25 37 32 30 30 26 24 23 21 20 19 17 17 18 18 17 17 17 17 17 16 13 12 10 9 9 9 9 10 11
13 16 12 7 9 13 15 21 24 10 15 8 3 6 18 13 13 13 16 29 32 33 32 28 26 24 23 22 21 20 18 18 18 18 17 17 17 17 15 13 11 10 9 8 9 9 9 9 10
14 13 8 6 13 16 18 21 16 8 11 3 4 3 15 3 3 16 25 31 31 31 29 28 27 24 22 23 22 21 19 19 18 17 17 17 17 16 14 12 10 9 9 8 9 9 10 10 9
9 7 7 11 20 21 25 25 22 3 13 7 5 2 10 15 16 19 29 30 28 29 25 28 27 24 22 22 23 22 20 19 18 17 17 17 18 16 13 12 10 9 9 8 8 9 10 10 8
18 7 12 16 23 24 24 24 24 9 7 9 8 8 13 17 24 27 29 28 29 28 25 29 27 23 21 21 24 24 22 20 19 17 16 17 18 16 13 12 10 9 9 8 9 10 11 10 8
9 7 13 17 24 24 23 26 26 8 8 10 8 12 14 22 24 26 28 26 28 30 24 29 26 23 20 21 23 24 23 21 19 17 16 17 18 17 14 12 11 10 10 9 10 10 11 9 8
16 14 19 23 23 24 24 23 22 11 10 18 11 14 15 16 24 25 26 26 28 29 26 27 26 23 20 20 23 24 23 21 20 18 16 16 18 17 15 13 12 11 11 10 10 10 10 9 9
14 14 25 23 21 26 25 24 25 11 12 16 7 7 14 21 24 25 25 26 27 26 24 26 24 24 22 21 22 23 23 22 21 19 17 17 18 18 16 14 13 12 11 11 10 10 10 11 11
19 16 18 27 27 21 22 25 5 4 11 18 9 8 15 23 25 24 24 27 26 27 27 26 24 23 22 20 22 23 22 22 21 19 17 17 17 18 16 15 11 11 11 11 11 11 12 12 13
20 17 29 24 24 25 27 27 23 13 15 16 12 13 15 15 21 22 21 22 26 27 27 28 28 27 25 21 22 22 21 22 21 19 18 17 15 14 14 12 13 11 11 12 12 13 13 15 15
25 26 24 25 26 28 26 27 24 12 14 14 18 16 13 14 15 18 24 26 27 27 27 29 29 28 26 24 23 21 20 19 19 18 18 20 16 18 16 16 15 14 14 14 13 14 17 16 14
28 30 28 26 27 24 24 27 22 16 15 15 19 15 18 17 15 17 20 25 28 28 28 32 30 31 28 25 23 23 22 22 21 22 21 20 21 21 19 19 18 15 16 16 16 16 14 14 13
30 28 28 27 26 26 24 27 22 20 14 12 11 6 12 8 13 17 19 25 30 30 30 32 32 33 31 28 26 25 24 24 22 22 23 20 23 19 20 18 18 22 17 20 16 20 21 21 18
24 26 28 25 28 26 26 27 17 21 20 18 16 10 12 12 11 10 16 20 30 34 36 34 35 36 33 23 29 27 25 26 24 25 25 23 22 19 19 19 16 19 16 18 22 21 18 18 17
25 30 28 28 30 28 27 26 29 20 23 23 18 17 14 16 15 14 17 18 12 30 42 37 35 38 33 24 28 28 26 23 25 23 26 24 24 21 21 18 19 19 17 16 13 12 8 7 12
24 27 26 29 27 27 23 29 27 23 22 22 20 18 17 18 14 19 20 22 22 30 24 32 33 32 34 26 20 25 22 24 23 22 23 27 23 24 18 21 19 19 18 17 17 17 16 16 18
24 23 28 25 27 29 24 32 26 23 24 24 21 20 19 17 18 24 21 26 28 34 43 37 36 35 33 28 23 21 24 22 22 22 20 26 26 24 25 19 20 17 12 8 6 7 8 8 11
23 25 27 28 23 28 27 31 24 25 22 22 19 23 21 22 20 25 25 24 20 22 30 31 31 29 33 28 27 24 20 22 20 21 22 22 28 25 23 24 18 18 14 14 13 13 15 13 13
26 25 28 27 26 28 25 30 25 23 21 16 22 24 26 22 19 23 29 26 26 17 25 31 30 28 33 30 28 24 26 22 24 21 21 22 28 26 25 21 19 20 14 15 16 20 15 16 17
26 26 29 26 26 24 24 29 25 25 25 23 19 15 14 18 20 20 26 24 28 28 24 20 31 34 32 29 28 25 23 23 22 23 23 20 22 26 23 18 19 18 20 20 19 14 13 16 15
25 26 25 26 25 28 21 24 24 20 24 20 22 20 16 15 16 20 18 26 26 30 29 31 35 32 33 30 26 25 23 20 24 22 23 20 19 19 19 17 19 17 19 18 17 16 18 16 15
24 24 26 26 23 19 22 16 21 20 18 19 23 24 20 20 18 15 18 17 27 32 32 27 18 32 34 31 28 25 19 13 10 15 13 16 16 16 17 17 18 20 14 13 11 13 15 15 13
22 19 22 25 23 23 28 14 19 20 22 22 22 20 23 23 19 17 13 14 28 31 33 35 35 30 29 33 21 22 18 12 12 10 11 13 16 15 15 17 17 16 15 13 11 12 12 12 15
22 16 28 23 18 19 24 22 17 22 20 24 23 23 22 19 21 21 17 17 23 31 31 34 33 26 27 30 27 26 25 19 17 16 16 14 14 14 14 13 13 12 11 10 9 10 11 11 13
19 10 12 13 15 17 22 24 19 22 24 21 21 26 26 22 21 20 21 17 15 28 32 31 32 30 27 29 25 27 26 13 24 18 15 16 16 12 13 9 9 7 9 11 9 7 8 9 12
23 20 11 12 15 20 25 25 22 27 26 24 14 23 24 24 21 21 21 19 20 24 30 32 33 31 30 28 25 24 23 17 17 18 15 10 12 13 10 8 7 4 4 3 2 3 5 7 8
26 8 11 15 22 15 15 27 27 23 28 28 14 8 20 19 20 21 20 17 21 21 27 34 30 27 27 27 27 23 23 19 19 22 22 20 18 16 13 9 7 2 3 4 8 8 7 7 9
20 5 14 13 20 9 13 20 19 25 27 25 19 10 7 12 11 12 19 16 24 29 31 34 31 30 27 24 25 24 26 25 27 24 20 18 16 15 14 12 8 7 6 5 5 5 6 8 9
17 10 3 6 17 16 9 8 12 22 17 22 17 15 11 9 8 6 12 12 22 29 32 33 31 30 28 28 31 31 29 29 27 26 22 21 19 18 16 13 11 10 9 9 9 9 10 12 11
11 20 19 5 13 17 5 4 19 21 9 15 11 12 12 16 13 11 10 19 24 31 32 30 33 34 31 31 31 30 30 29 29 27 24 22 21 17 14 11 10 8 8 8 9 12 13 15 15
Wind_Direction
274 286 267 265 251 231 254 255 258 266 266 92 11 293 77 89 13 70 134 126 130 141 155 156 158 163 167 169 169 166 161 158 149 147 145 142 139 139 137 132 126 125 122 125 122 123 120 118 117
283 293 256 273 244 253 248 242 260 255 87 69 306 222 91 102 155 121 120 128 135 145 155 159 161 164 170 174 174 171 168 163 155 152 150 148 146 144 140 136 128 123 122 124 124 123 122 123 119
284 271 268 228 239 243 258 251 235 158 111 104 292 344 90 261 165 140 129 132 134 144 150 164 164 167 172 177 178 176 172 166 160 156 154 154 154 150 141 139 131 124 122 124 127 129 130 128 125
259 224 247 258 251 240 247 271 289 157 133 132 270 251 90 161 132 131 137 138 140 144 152 165 165 169 174 177 180 179 176 172 166 162 160 162 162 157 149 146 140 136 131 134 135 135 136 134 135
242 265 238 245 243 253 265 251 264 280 132 158 210 254 104 97 109 135 141 141 142 147 155 163 166 169 175 178 180 180 179 175 171 168 166 170 171 166 160 158 155 153 148 149 151 151 152 152 155
231 227 246 242 247 253 250 268 278 195 268 251 154 261 111 119 132 144 147 145 144 145 149 162 167 169 173 176 180 183 182 178 176 174 173 178 179 178 175 173 170 171 170 170 170 174 178 180 186
240 235 239 246 256 261 244 245 260 234 219 262 171 237 130 143 139 147 145 148 142 139 146 159 163 169 173 176 180 185 184 182 182 181 182 184 184 185 186 187 186 187 188 190 190 193 201 208 213
235 249 253 246 250 257 265 263 234 194 229 254 359 193 164 135 148 148 149 150 148 145 153 156 161 165 169 174 182 185 188 189 189 189 190 189 189 191 193 196 194 197 200 204 209 213 218 224 231
239 242 244 242 248 252 262 270 152 169 238 260 160 161 84 130 148 157 157 156 154 151 154 163 165 167 166 170 180 189 193 194 193 194 197 193 190 195 200 202 204 206 210 215 221 226 231 236 242
228 238 237 244 250 250 262 271 275 190 215 240 207 128 128 161 168 170 166 163 160 156 160 168 169 170 170 171 183 182 186 192 194 196 200 195 187 207 200 207 207 218 227 229 231 234 238 242 245
230 239 246 246 249 262 266 266 281 233 204 234 249 187 161 176 194 185 176 174 167 165 164 167 172 171 174 170 179 171 180 183 193 196 206 191 192 207 198 208 215 224 233 237 242 243 242 245 252
240 236 243 255 267 270 258 263 271 257 239 220 237 213 182 197 194 206 187 179 169 169 167 164 170 173 179 169 176 176 180 185 190 194 201 198 195 206 201 205 213 222 217 233 224 241 250 242 236
238 243 242 240 252 259 271 269 256 260 241 255 283 144 147 190 205 211 217 193 175 167 164 164 170 174 185 170 171 181 185 184 189 194 199 203 204 211 206 209 214 214 208 225 224 224 238 231 238
254 252 257 250 246 247 255 260 258 242 261 231 241 205 182 212 223 247 235 240 177 168 165 171 171 176 190 178 173 185 186 185 193 193 196 204 207 215 211 217 228 240 232 221 221 221 227 226 239
253 254 262 248 241 246 247 251 249 235 243 251 240 244 234 200 228 217 231 243 203 176 170 166 169 176 189 193 181 183 190 188 190 196 196 202 203 219 217 218 224 231 243 254 260 265 275 266 264
261 252 245 241 250 243 241 246 240 240 234 241 242 244 241 237 231 244 208 239 228 175 145 159 169 174 182 196 188 185 194 201 195 200 198 203 205 208 218 221 226 224 232 237 240 242 249 249 248
246 249 239 251 246 238 217 244 243 239 233 232 236 232 235 239 234 241 231 231 213 175 165 175 174 177 180 196 200 193 202 196 210 198 204 199 201 209 222 221 235 239 230 236 243 238 253 270 289
237 242 242 254 244 231 240 237 234 239 240 252 231 231 231 227 226 219 233 209 220 181 170 171 169 175 178 190 198 206 207 209 204 216 205 210 200 203 213 226 233 236 234 243 262 269 277 282 281
256 253 253 251 231 240 241 237 232 218 220 233 229 238 216 224 226 222 217 199 203 197 173 170 170 179 176 183 192 199 207 204 210 211 216 216 203 205 207 212 229 240 223 233 244 252 252 254 261
237 249 263 268 271 271 239 243 237 219 208 221 239 244 221 209 220 236 204 200 188 186 192 178 179 182 183 186 192 203 198 205 206 211 219 217 208 200 206 210 227 241 227 227 232 239 248 253 253
251 248 247 250 259 268 265 262 242 241 211 213 207 238 218 218 237 220 216 195 179 182 178 183 187 189 186 190 190 201 212 212 203 208 207 207 189 190 193 208 229 243 235 225 219 242 245 250 256
240 250 256 253 258 251 249 258 248 228 245 238 212 211 209 207 228 231 216 192 185 173 172 178 180 184 187 190 193 197 194 192 195 170 170 180 179 192 217 227 227 242 237 253 231 234 237 241 250
289 267 241 262 245 257 256 253 249 222 225 234 241 226 216 200 215 238 236 189 182 166 168 181 197 196 191 190 197 192 180 189 194 190 195 204 204 220 213 226 233 243 249 247 238 237 237 235 254
277 288 300 233 249 244 245 249 231 254 229 220 219 222 223 210 202 220 233 218 185 170 173 180 190 195 194 187 194 179 176 187 186 186 190 194 205 206 209 220 228 238 246 248 258 255 257 267 266
242 238 244 232 226 241 234 244 243 238 247 245 245 211 208 204 211 203 217 217 201 187 172 172 179 186 194 183 187 175 181 203 161 164 170 177 186 194 211 210 218 234 246 249 266 268 281 282 279
269 246 243 211 225 237 222 236 230 232 253 249 276 220 193 197 203 201 209 202 206 188 173 174 171 178 182 173 163 164 171 157 154 165 162 153 167 190 165 169 177 184 160 138 282 300 296 320 306
232 206 248 271 240 238 239 225 232 231 221 239 243 288 185 193 201 197 204 194 191 184 171 161 165 168 164 165 156 162 152 154 138 121 112 102 111 118 112 112 92 53 16 326 292 294 301 311 323
251 304 208 222 251 198 261 252 223 215 212 219 211 211 202 182 190 197 197 192 184 188 149 155 140 131 144 146 145 135 132 115 116 117 109 105 102 105 101 87 82 80 69 51 35 12 356 350 337
242 211 150 295 252 232 242 267 336 317 194 195 184 180 196 157 75 338 240 202 174 136 119 122 122 117 119 121 116 115 112 111 110 104 102 102 102 99 94 97 94 83 68 46 28 7 26 7 357
308 218 207 184 247 248 196 256 292 324 48 162 149 152 138 101 80 39 80 91 95 100 106 108 112 115 118 118 117 115 113 110 104 102 102 98 93 92 87 84 77 63 45 38 24 20 11 3 358